{"data":{"norad_id":69935,"intl_designator":"2026-156BU","name":"KOSTKA","alt_names":[],"object_type":"PAYLOAD","status":"ACTIVE","operator":null,"country":"CZCH","launch_date":"2026-07-07","launch_site_code":"AFWTR","launch_vehicle":null,"mission":null,"orbit_class":"UNKNOWN","rcs_meters":null,"size_class":null,"mass_kg":null,"dimensions":null,"purposes":[],"wikipedia_slug":null,"has_3d_model":false,"image_url":null,"decayed_at":null,"tle_current":{"epoch":"2026-09-19T22:57:12.324096Z","epoch_age_seconds":64788,"freshness":"FRESH","line1":"1 69935U 26156BU  26262.95639264  .00001648  00000+0  16498-3 0  9993","line2":"2 69935  97.7396 162.2012 0008265 267.2085  92.8189 14.92735806 11138","mean_motion":14.92735806,"eccentricity":0.0008265,"inclination_deg":97.7396,"raan_deg":162.2012,"arg_perigee_deg":267.2085,"mean_anomaly_deg":92.8189,"bstar":0.00016498,"rev_number":1113,"period_min":96.467170829022,"perigee_km":583.65080155542,"apogee_km":595.16815588475,"semimajor_km":6967.5464787201,"source":"CELESTRAK","updated_at":"2026-09-20T09:00:25.208314Z"}}}